x

Gravelly Shoals Light Mi (gslm4) Weather Station

11:40pm - Sat 25th Apr 2015 All times are CDT. -5 hours from GMT.

  • Wind
    14mph, 15mph gusts
  • Air Temp 42°f
  • Sea Pressure 1012.9mb
  • Gravelly Shoals Light Mi
  • Gravelly Shoals Light Mi

More Historic Weather Station data

Upgrade to MSW Pro to gain access to the past 30 days of data for over 8000 Wavebouys and Weather Stations around the globe.

Join Pro

Comparision Forecast

View Surf forecast
   
Sat 04/25 11:40pm 14 15 mph 1012.9mb 42f
11:30pm 13 15 mph 1012.9mb 41f
11:20pm 13 14 mph 1012.9mb 41f
11:19pm 13 14 mph 1012.9mb 41f
11:10pm 11 13 mph 1012.9mb 41f
11:00pm 10 14 mph 1012.9mb 41f
10:40pm 10 11 mph 1012.9mb 41f
10:30pm 8 9 mph 1013.2mb 41f
10:20pm 8 9 mph 1013.2mb 40f
10:18pm 7 10 mph 1013.2mb 40f
10:10pm 7 9 mph 1013.2mb 40f
10:00pm 9 10 mph 1013.2mb 40f
9:40pm 8 9 mph 1013.2mb 40f
9:30pm 8 10 mph 1013.2mb 40f
9:20pm 9 10 mph 1013.2mb 40f
9:18pm 10
mph
1013.5mb 40f
9:10pm 9 10 mph 1013.5mb 40f
9:00pm 9 10 mph 1013.5mb 40f
8:40pm 8 9 mph 1013.2mb 40f
8:30pm 8 9 mph 1013.5mb 40f
8:20pm 8 9 mph 1013.5mb 40f
8:17pm 8 11 mph 1013.5mb 40f
8:10pm 8 9 mph 1013.5mb 40f
8:00pm 7 8 mph 1013.5mb 39f
7:40pm 8 10 mph 1013.2mb 39f
7:30pm 9 11 mph 1013.2mb 39f
7:20pm 9
mph
1013.2mb 39f
7:17pm 9 11 mph 1013.2mb 39f
7:10pm 8 9 mph 1013.2mb 39f
7:00pm 9 10 mph 1013.2mb 39f
6:30pm 10 11 mph 1013.2mb 39f
6:20pm 10 11 mph 1013.2mb 39f
6:16pm 10 15 mph 1013.2mb 39f
6:10pm 11 13 mph 1013.2mb 39f
6:00pm 13
mph
1013.2mb 39f
5:40pm 13 14 mph 1012.9mb 38f
5:30pm 13 15 mph 1012.9mb 38f
5:20pm 13 15 mph 1012.9mb 38f
5:16pm 14 16 mph 1012.9mb 38f
5:10pm 13 15 mph 1012.9mb 38f
5:00pm 14 15 mph 1012.9mb 38f
4:40pm 15 16 mph 1012.9mb 38f
4:30pm 14 15 mph 1013.2mb 37f
4:20pm 14 16 mph 1013.2mb 37f
4:16pm 15 17 mph 1012.9mb 37f
4:10pm 15 16 mph 1012.9mb 37f
4:00pm 15 16 mph 1012.9mb 37f
3:40pm 15 16 mph 1012.9mb 37f
3:30pm 15 17 mph 1013.2mb 37f
3:20pm 15 16 mph 1013.2mb 37f
3:15pm 15 20 mph 1013.2mb 37f
3:10pm 15 16 mph 1013.2mb 37f
3:00pm 16 18 mph 1013.2mb 36f
2:40pm 16 18 mph 1013.5mb 37f
2:30pm 17 18 mph 1013.2mb 36f
2:20pm 16 20 mph 1013.5mb 37f
2:15pm 18 22 mph 1013.5mb 36f
2:10pm 18 20 mph 1013.5mb 36f
2:00pm 18 21 mph 1013.5mb 36f
1:40pm 18 22 mph 1013.9mb 36f
1:30pm 21 22 mph 1013.5mb 36f
1:20pm 20 23 mph 1013.9mb 36f
1:14pm 20 23 mph 1013.9mb 36f
1:10pm 20 22 mph 1013.9mb 36f
1:00pm 18 22 mph 1013.9mb 36f
12:40pm 20 21 mph 1014.2mb 36f
12:30pm 20 21 mph 1014.2mb 36f
12:20pm 20 21 mph 1014.6mb 36f
12:14pm 20 21 mph 1014.6mb 36f
12:10pm 18 21 mph 1014.6mb 36f
12:00pm 18 20 mph 1014.9mb 36f
11:40am 17 18 mph 1015.2mb 36f
11:30am 17 18 mph 1015.2mb 36f
11:20am 17 18 mph 1015.6mb 36f
11:14am 16 18 mph 1015.6mb 36f
11:10am 16 18 mph 1015.6mb 36f
11:00am 16 17 mph 1015.9mb 36f
10:40am 15 16 mph 1015.9mb 36f
10:30am 14 16 mph 1016.3mb 36f
10:20am 14 15 mph 1016.3mb 36f
10:13am 13 15 mph 1016.3mb 36f
10:10am 11 14 mph 1016.3mb 36f
10:00am 11 13 mph 1016.3mb 36f
9:40am 10 11 mph 1016.6mb 36f
9:30am 10 11 mph 1016.6mb 36f
9:20am 10 13 mph 1016.6mb 36f
9:13am 10 14 mph 1016.6mb 36f
9:10am 11 13 mph 1016.3mb 36f
9:00am 10 13 mph 1016.6mb 36f
8:40am 11 13 mph 1016.6mb 36f
8:30am 11 13 mph 1016.6mb 36f
8:20am 11 13 mph 1016.3mb 36f
8:12am 10 13 mph 1016.3mb 37f
8:10am 10 13 mph 1016.3mb 37f
8:00am 11 13 mph 1016.3mb 37f
7:40am 11 13 mph 1016.3mb 37f
7:30am 10 13 mph 1016.3mb 36f
7:20am 11 14 mph 1015.9mb 36f
7:12am 13 15 mph 1015.9mb 36f
7:10am 13 15 mph 1015.9mb 36f
7:00am 13 15 mph 1015.9mb 36f
6:40am 11 14 mph 1015.9mb 36f
6:30am 11 14 mph 1015.9mb 36f
6:20am 10 13 mph 1015.9mb 36f
6:12am 11 13 mph 1015.9mb 36f
6:10am 10 13 mph 1015.9mb 36f
6:00am 10 11 mph 1015.9mb 36f
5:40am 11 13 mph 1015.9mb 35f
5:30am 10 13 mph 1015.9mb 35f
5:20am 11 13 mph 1015.9mb 35f
5:11am 11 13 mph 1015.9mb 35f
5:10am 11 13 mph 1015.9mb 35f
5:00am 9 13 mph 1015.9mb 35f
4:40am 10 13 mph 1016.3mb 35f
4:30am 10 13 mph 1016.3mb 35f
4:20am 11 13 mph 1016.3mb 35f
4:11am 11 13 mph 1016.3mb 35f
4:10am 11 13 mph 1016.3mb 35f
4:00am 10 11 mph 1016.6mb 35f
3:40am 9 11 mph 1016.9mb 35f
3:30am 10 11 mph 1016.9mb 35f
3:20am 11 13 mph 1017.3mb 35f
3:10am 10 11 mph 1017.3mb 35f
3:00am 10 11 mph 1017.3mb 35f
2:40am 9 11 mph 1017.3mb 35f
2:30am 9 11 mph 1017.3mb 35f
2:20am 9 11 mph 1017.3mb 35f
2:10am 10 13 mph 1017.3mb 35f
2:00am 10 11 mph 1017.3mb 35f
1:40am 11 14 mph 1017.6mb 36f
1:30am 10 14 mph 1017.6mb 36f
1:20am 10 13 mph 1017.6mb 36f
1:10am 11 15 mph 1017.9mb 36f
1:00am 13 14 mph 1017.9mb 36f
12:40am 10 14 mph 1017.6mb 36f
12:30am 11 14 mph 1017.6mb 36f
12:20am 11 15 mph 1017.6mb 36f
12:10am 11 15 mph 1017.6mb 36f
12:09am 11 15 mph 1017.6mb 36f
12:00am 13 14 mph 1017.6mb 36f
Fri 04/24 11:50pm 13 14 mph 1017.3mb 36f
11:40pm 13 15 mph 1017.3mb 36f
11:30pm 13 14 mph 1017.3mb 36f
11:20pm 13 14 mph 1017.3mb 36f
11:10pm 13 15 mph 1017.3mb 36f
11:09pm 13 17 mph 1017.3mb 37f
11:00pm 11 14 mph 1017.6mb 37f
10:50pm 11 14 mph 1017.3mb 37f
10:40pm 13 15 mph 1017.6mb 37f
10:30pm 14 15 mph 1017.6mb 37f
10:20pm 13 17 mph 1017.6mb 37f
10:10pm 16 20 mph 1017.6mb 37f
10:08pm 17 21 mph 1017.6mb 38f
10:00pm 16 20 mph 1017.6mb 37f
9:50pm 16 20 mph 1017.6mb 37f
9:40pm 16 21 mph 1017.6mb 37f
9:30pm 20 21 mph 1017.6mb 37f
9:20pm 16 20 mph 1017.6mb 37f
9:10pm 16 18 mph 1017.6mb 37f
9:08pm 17 21 mph 1017.6mb 37f
9:00pm 17 20 mph 1017.6mb 37f
8:50pm 17 20 mph 1017.6mb 37f
8:40pm 17 20 mph 1017.6mb 37f
8:30pm 17 20 mph 1017.9mb 36f
8:20pm 18 20 mph 1017.6mb 36f
8:10pm 20 21 mph 1017.6mb 36f
8:08pm 18 23 mph 1017.6mb 36f
8:00pm 18 21 mph 1017.6mb 36f
7:50pm 18 21 mph 1017.6mb 36f
7:40pm 18 21 mph 1017.6mb 36f
7:30pm 20 22 mph 1017.3mb 36f
7:20pm 20 22 mph 1017.6mb 36f
7:10pm 22 23 mph 1017.6mb 36f
7:07pm 21 24 mph 1017.6mb 36f
7:00pm 21 24 mph 1017.3mb 36f
6:50pm 22 24 mph 1017.3mb 36f
6:30pm 22 23 mph 1017.3mb 36f
6:20pm 22 24 mph 1017.3mb 36f
6:10pm 22 24 mph 1016.9mb 36f
6:00pm 21 22 mph 1017.3mb 36f
5:50pm 21 23 mph 1016.9mb 36f
5:40pm 21 23 mph 1016.9mb 37f
5:30pm 21 22 mph 1016.9mb 37f
5:20pm 20 22 mph 1016.9mb 37f
5:10pm 21 22 mph 1016.9mb 37f
5:06pm 20 22 mph 1016.9mb 37f
5:00pm 20 22 mph 1016.9mb 36f
4:50pm 18 20 mph 1016.9mb 37f
4:40pm 18 21 mph 1016.9mb 37f
4:30pm 17 18 mph 1016.9mb 37f
4:20pm 16 17 mph 1016.9mb 38f
4:10pm 13 16 mph 1016.9mb 40f
4:06pm 10 18 mph 1016.9mb 43f
4:00pm 9 15 mph 1016.9mb 43f
3:50pm 14 17 mph 1016.9mb 43f
3:40pm 16 18 mph 1016.9mb 43f
3:30pm 15 17 mph 1016.9mb 43f
3:20pm 14 18 mph 1016.9mb 42f
3:10pm 17 18 mph 1016.9mb 42f
3:06pm 16 21 mph 1016.9mb 42f
3:00pm 15 20 mph 1016.9mb 42f
2:50pm 17 20 mph 1016.9mb 41f
2:40pm 17 20 mph 1016.9mb 41f
2:30pm 15 18 mph 1017.3mb 41f
2:20pm 17 21 mph 1017.3mb 40f
2:10pm 17 20 mph 1017.3mb 40f
2:05pm 16 21 mph 1017.6mb 41f
2:00pm 16 21 mph 1017.6mb 40f
1:50pm 17 20 mph 1017.6mb 40f
1:40pm 17 20 mph 1017.6mb 40f
1:30pm 16 18 mph 1017.9mb 39f
1:20pm 14 18 mph 1018.3mb 39f
1:10pm 13 18 mph 1018.3mb 39f
1:05pm 11 18 mph 1018.3mb 39f
1:00pm 10 15 mph 1018.6mb 38f
12:50pm 8 13 mph 1018.6mb 39f
12:40pm 10 16 mph 1018.6mb 38f
12:30pm 7 11 mph 1019mb 38f
12:20pm 9 15 mph 1019mb 38f
12:10pm 8 13 mph 1019mb 38f
12:04pm 6 17 mph 1019mb 38f
12:00pm 7 13 mph 1019mb 38f
11:50am 2 8 mph 1019.3mb 37f
11:40am 2 14 mph 1019.3mb 38f
11:30am 2 16 mph 1019.3mb 37f
11:20am 10 14 mph 1019.6mb 39f
11:10am 14 17 mph 1019.6mb 39f
11:04am 13 22 mph 1019.6mb 38f
11:00am 9 15 mph 1019.6mb 38f
10:50am 10 18 mph 1019.6mb 38f
10:40am 13 20 mph 1019.6mb 38f
10:30am 9 14 mph 1019.6mb 37f
10:20am 10 16 mph 1019.6mb 37f
10:10am 11 22 mph 1019.6mb 37f
10:04am 15 18 mph 1019.6mb 37f
10:00am 15 18 mph 1019.6mb 37f
9:50am 10 15 mph 1019.6mb 36f
9:40am 11 13 mph 1019.6mb 36f
9:30am 8 14 mph 1019.6mb 35f
9:20am 10 16 mph 1019.6mb 36f
9:10am 8 15 mph 1019.6mb 35f
9:03am 9 14 mph 1019.6mb 35f
9:00am 9 10 mph 1019.6mb 35f
8:50am 7 10 mph 1019.6mb 35f
8:40am 9 11 mph 1019.6mb 34f
8:30am 10 13 mph 1019.6mb 34f
8:20am 11 14 mph 1019.6mb 34f
8:10am 11 14 mph 1019.6mb 34f
8:03am 11 14 mph 1019.6mb 34f
8:00am 11 14 mph 1019.6mb 34f
7:50am 10 13 mph 1020mb 34f
7:40am 10 13 mph 1019.6mb 34f
7:30am 13 14 mph 1019.6mb 34f
7:20am 10 13 mph 1019.6mb 34f
7:10am 11 14 mph 1019.6mb 34f
7:02am 11 15 mph 1019.6mb 34f
7:00am 13 15 mph 1019.6mb 34f
6:50am 13 14 mph 1019.6mb 33f
6:40am 13 14 mph 1019.3mb 33f
6:30am 13 15 mph 1019.3mb 34f
6:20am 13 15 mph 1019.3mb 33f
6:10am 13 15 mph 1019.3mb 33f
6:02am 13 15 mph 1019mb 33f
6:00am 13 15 mph 1019mb 33f
5:50am 13 15 mph 1019mb 33f
5:40am 13 14 mph 1019mb 33f
5:30am 11 14 mph 1019mb 33f
5:20am 13 15 mph 1019mb 33f
5:10am 11 14 mph 1019mb 33f
5:02am 10 16 mph 1019mb 33f
5:00am 10 11 mph 1019mb 33f
4:50am 10 13 mph 1019mb 33f
4:40am 11 15 mph 1019mb 33f
4:30am 14 16 mph 1019mb 33f
4:20am 11 15 mph 1018.6mb 33f
4:10am 14 15 mph 1018.6mb 33f
4:01am 13 18 mph 1018.6mb 33f
4:00am 13 15 mph 1018.6mb 33f
3:50am 13 15 mph 1018.6mb 33f
3:40am 13 16 mph 1018.6mb 33f
3:30am 13 15 mph 1018.6mb 33f
3:20am 13 16 mph 1018.6mb 33f
3:10am 15 18 mph 1018.3mb 33f
3:01am 18 21 mph 1018.3mb 33f
3:00am 18 21 mph 1018.3mb 33f
2:50am 17 21 mph 1018.3mb 33f
2:40am 18 21 mph 1018.3mb 33f
2:30am 14 17 mph 1018.3mb 32f
2:20am 15 17 mph 1018.3mb 32f
2:10am 13 16 mph 1018.3mb 32f
2:00am 14 16 mph 1018.3mb 32f
1:50am 11 15 mph 1018.3mb 32f
1:40am 13 15 mph 1018.3mb 32f
1:30am 15 17 mph 1017.9mb 33f
1:20am 14 16 mph 1017.9mb 33f
1:10am 14 16 mph 1017.9mb 33f
1:00am 14 16 mph 1017.9mb 33f
12:50am 11 15 mph 1017.9mb 33f
12:40am 13 14 mph 1017.9mb 34f
12:30am 13 15 mph 1017.9mb 34f
12:20am 11 16 mph 1017.9mb 34f
12:10am 11 14 mph 1017.6mb 35f
12:00am 11 15 mph 1017.6mb 35f
Thu 04/23 11:50pm 11 13 mph 1017.6mb 35f
11:40pm 10 13 mph 1017.3mb 35f
11:30pm 10 11 mph 1017.3mb 35f
11:20pm 10 11 mph 1017.3mb 36f
11:10pm 9 11 mph 1016.9mb 36f
11:00pm 9 11 mph 1016.9mb 36f
10:50pm 8 11 mph 1016.9mb 36f
10:40pm 10 11 mph 1016.6mb 36f
10:30pm 10 11 mph 1016.6mb 37f
10:23pm 9 14 mph 1016.6mb 36f
10:20pm 10 11 mph 1016.6mb 36f
10:10pm 10 13 mph 1016.6mb 37f
10:00pm 11 14 mph 1016.3mb 37f
9:50pm 10 11 mph 1016.3mb 37f
9:40pm 9 10 mph 1016.6mb 37f
9:30pm 9 11 mph 1016.3mb 37f
9:22pm 9 15 mph 1016.3mb 37f
9:20pm 9 11 mph 1016.3mb 37f
9:10pm 10 13 mph 1016.3mb 37f
9:00pm 10 13 mph 1016.3mb 37f
8:50pm 11 14 mph 1016.3mb 37f
8:40pm 13 14 mph 1015.9mb 37f
8:30pm 13 15 mph 1015.9mb 38f
8:22pm 11 21 mph 1015.9mb 38f
8:20pm 11 15 mph 1015.9mb 38f
8:10pm 13 16 mph 1015.9mb 38f
8:00pm 15 17 mph 1015.9mb 38f
7:50pm 16 21 mph 1015.9mb 38f
7:40pm 16 18 mph 1015.9mb 38f
7:30pm 16 20 mph 1015.9mb 38f
7:22pm 17 20 mph 1015.9mb 38f
7:20pm 16 20 mph 1015.9mb 38f
7:10pm 16 18 mph 1015.9mb 38f
7:00pm 15 22 mph 1015.9mb 37f
6:50pm 18 22 mph 1015.6mb 37f
6:30pm 22 25 mph 1015.9mb 37f
6:21pm 18
mph
1015.6mb 37f
6:20pm 18 25 mph 1015.6mb 37f
6:10pm 22 30 mph 1015.9mb 37f
6:03pm 15 30 mph 1015.9mb 37f
6:00pm 17 22 mph 1015.9mb 37f
5:50pm 21 24 mph 1015.9mb 36f
5:40pm 18 26 mph 1015.9mb 36f
5:30pm 23 30 mph 1015.9mb 36f
5:21pm 24
mph
1015.9mb 36f
5:20pm 24 28 mph 1015.9mb 36f
5:10pm 24 29 mph 1015.9mb 36f
5:00pm 24 30 mph 1015.6mb 36f
4:52pm 25 29 mph 1015.6mb 36f
4:50pm 25 28 mph 1015.6mb 36f
4:40pm 21 26 mph 1015.2mb 36f
4:30pm 21 24 mph 1015.2mb 36f
4:20pm 18 24 mph 1015.2mb 35f
4:10pm 21 26 mph 1015.2mb 36f
4:00pm 22 26 mph 1014.9mb 35f
3:50pm 16 23 mph 1014.9mb 35f
3:40pm 21 24 mph 1014.9mb 35f
3:30pm 20 23 mph 1014.9mb 35f
3:20pm 20 28 mph 1014.9mb 35f
3:10pm 21 24 mph 1014.9mb 34f
3:00pm 23 25 mph 1014.9mb 34f
2:50pm 21 28 mph 1014.6mb 35f
2:40pm 18 26 mph 1014.6mb 34f
2:30pm 22 28 mph 1014.6mb 34f
2:20pm 21 26 mph 1014.6mb 34f
2:19pm 22
mph
1014.2mb 34f
2:10pm 21 26 mph 1014.6mb 34f
2:00pm 18 29 mph 1014.2mb 34f
1:50pm 22 26 mph 1014.6mb 34f
1:40pm 22 25 mph 1014.6mb 34f
1:30pm 25 30 mph 1014.2mb 34f
1:28pm 21 30 mph 1014.2mb 34f
1:20pm 23 26 mph 1014.2mb 34f
1:10pm 24 29 mph 1014.2mb 33f
1:00pm 24 28 mph 1014.2mb 33f
12:50pm 22 28 mph 1013.9mb 33f
12:40pm 18 26 mph 1014.6mb 33f
12:30pm 18 24 mph 1013.9mb 33f
12:20pm 21 28 mph 1013.9mb 33f
12:19pm 20
mph
1013.9mb 33f
12:10pm 17 26 mph 1013.5mb 33f
12:00pm 18 26 mph 1013.9mb 33f
11:50am 20 26 mph 1013.9mb 33f
11:40am 23 29 mph 1013.5mb 32f
11:38am 20 29 mph 1013.5mb 32f
11:30am 21 24 mph 1013.5mb 32f
11:20am 17 25 mph 1013.5mb 32f
11:18am 20 25 mph 1013.5mb 32f
11:10am 20 24 mph 1013.5mb 32f
11:00am 17 22 mph 1013.5mb 32f
10:50am 20 23 mph 1013.5mb 31f
10:40am 21 23 mph 1013.5mb 31f
10:30am 17 22 mph 1013.5mb 31f
10:20am 20 26 mph 1013.5mb 31f
10:18am 21
mph
1013.5mb 31f
10:10am 21 26 mph 1013.5mb 30f
10:00am 23 28 mph 1013.2mb 30f
9:50am 25 33 mph 1013.2mb 30f
9:40am 24 31 mph 1012.9mb 30f
9:30am 24 30 mph 1012.9mb 30f
9:29am 25 30 mph 1012.9mb 31f
9:20am 24 29 mph 1012.9mb 30f
9:10am 21 26 mph 1012.5mb 30f
9:00am 16 22 mph 1012.5mb 30f
8:50am 15 24 mph 1012.5mb 30f
8:40am 20 24 mph 1012.5mb 30f
8:30am 15 21 mph 1012.5mb 30f
8:20am 18 24 mph 1012.5mb 29f
8:17am 21 24 mph 1012.5mb 29f
8:10am 17 23 mph 1012.5mb 29f
8:00am 20 23 mph 1012.5mb 29f
7:50am 15 21 mph 1012.5mb 29f
7:40am 17 22 mph 1012.2mb 29f
7:30am 16 21 mph 1012.2mb 29f
7:20am 18 23 mph 1012.2mb 29f
7:16am 17 25 mph 1012.2mb 29f
7:10am 14 22 mph 1012.2mb 29f
7:00am 16 25 mph 1012.2mb 29f
6:50am 22 25 mph 1011.9mb 29f
6:40am 21 25 mph 1011.9mb 29f
6:30am 18 24 mph 1011.5mb 29f
6:20am 20 23 mph 1011.5mb 29f
6:16am 17 28 mph 1011.5mb 28f
6:10am 17 23 mph 1011.5mb 28f
6:00am 18 23 mph 1011.5mb 28f
5:50am 21 25 mph 1011.2mb 28f
5:40am 18 24 mph 1011.2mb 28f
5:30am 21 28 mph 1011.2mb 29f
5:20am 18 24 mph 1010.8mb 29f
5:16am 16 25 mph 1010.8mb 28f
5:10am 17 24 mph 1010.8mb 28f
5:00am 21 25 mph 1010.8mb 28f
4:50am 18 22 mph 1010.5mb 28f
4:40am 18 23 mph 1010.5mb 28f
4:30am 17 22 mph 1010.5mb 28f
4:20am 18 24 mph 1010.5mb 28f
4:15am 22 24 mph 1010.5mb 28f
4:10am 21 24 mph 1010.2mb 28f
4:00am 20 29 mph 1010.2mb 29f
3:50am 20 25 mph 1010.2mb 28f
3:40am 18 28 mph 1010.2mb 29f
3:30am 20 24 mph 1010.2mb 29f
3:20am 21 26 mph 1010.2mb 29f
3:15am 21
mph
1009.8mb 29f
3:10am 23 33 mph 1009.8mb 29f
3:02am 24 29 mph 1009.8mb 70f
3:00am 23 28 mph 1009.8mb 29f
2:50am 20 26 mph 1009.8mb 29f
2:40am 23 26 mph 1009.8mb 29f
2:30am 18 26 mph 1009.8mb 29f
2:20am 20 25 mph 1009.5mb 29f
2:14am 23 28 mph 1009.8mb 29f
2:10am 21 28 mph 1009.5mb 29f
2:00am 22 26 mph 1009.5mb 29f
1:50am 20 26 mph 1009.5mb 29f
1:40am 20 26 mph 1009.5mb 29f
1:30am 20 23 mph 1009.5mb 29f
1:20am 17 21 mph 1009.5mb 29f
1:14am 18 26 mph 1009.5mb 29f
1:10am 18 22 mph 1009.5mb 29f
1:00am 20 23 mph 1009.5mb 29f
12:50am 20 23 mph 1009.5mb 30f
12:40am 21 26 mph 1009.5mb 30f
12:30am 18 22 mph 1009.5mb 30f
12:20am 17 23 mph 1009.5mb 30f
12:14am 18 26 mph 1009.5mb 30f
12:10am 20 22 mph 1009.5mb 30f
12:00am 18 22 mph 1009.5mb 30f
Wed 04/22 11:50pm 18 24 mph 1009.5mb 31f
11:40pm 23 26 mph 1009.1mb 31f
11:30pm 24 26 mph 1009.1mb 31f
11:20pm 22 26 mph 1009.1mb 31f
11:13pm 21
mph
1009.1mb 31f
11:10pm 21 24 mph 1009.1mb 31f
11:00pm 22 26 mph 1009.1mb 31f
10:50pm 21 26 mph 1009.1mb 32f
10:40pm 22 30 mph 1009.1mb 32f
10:32pm 24 30 mph 1009.1mb 32f
10:30pm 22 29 mph 1009.1mb 32f
10:20pm 21 25 mph 1009.1mb 32f
10:10pm 23 26 mph 1009.1mb 32f
10:00pm 21 28 mph 1009.1mb 32f
9:50pm 23 26 mph 1009.1mb 32f
9:40pm 21 26 mph 1009.1mb 32f
9:30pm 21 28 mph 1009.1mb 32f
9:20pm 22 28 mph 1009.1mb 32f
9:12pm 22
mph
1009.1mb 33f
9:10pm 21 28 mph 1008.8mb 33f
9:00pm 23 30 mph 1008.8mb 33f
8:50pm 24 30 mph 1008.8mb 33f
8:40pm 22 29 mph 1008.5mb 33f
8:30pm 24 31 mph 1008.5mb 34f
8:22pm 22 29 mph 1008.5mb 34f
8:20pm 23 25 mph 1008.5mb 34f
8:10pm 18 26 mph 1008.5mb 34f
8:00pm 17 20 mph 1008.5mb 34f
7:50pm 18 23 mph 1008.5mb 34f
7:40pm 21 25 mph 1008.1mb 34f
7:30pm 20 26 mph 1008.1mb 34f
7:20pm 25 30 mph 1007.8mb 34f
7:15pm 23 30 mph 1007.8mb 34f
7:10pm 24 28 mph 1007.8mb 34f
7:00pm 20 26 mph 1007.8mb 34f
6:50pm 20 26 mph 1007.8mb 34f
6:30pm 13 18 mph 1007.8mb 33f
6:20pm 17 22 mph 1007.8mb 33f
6:11pm 17
mph
1007.8mb 32f
6:10pm 17 23 mph 1007.5mb 32f
6:00pm 24 30 mph 1007.5mb 32f
5:53pm 24 29 mph 1007.5mb 34f
5:50pm 25 31 mph 1007.5mb 34f
5:40pm 18 20 mph 1007.5mb 34f
5:30pm 15 18 mph 1007.1mb 33f
5:20pm 16 29 mph 1007.1mb 33f
5:11pm 26
mph
1007.1mb 34f
5:10pm 26 34 mph 1007.1mb 34f
5:00pm 21 28 mph 1006.8mb 34f
4:50pm 24 32 mph 1006.8mb 35f
4:49pm 25 30 mph 1006.8mb 36f
4:40pm 26 30 mph 1006.4mb 35f
4:30pm 22 25 mph 1006.4mb 35f
4:20pm 18 25 mph 1006.4mb 33f
4:10pm 28 31 mph 1006.4mb 34f
4:00pm 17 33 mph 1006.1mb 33f
3:50pm 33 38 mph 1005.8mb 35f
3:42pm 29
mph
1005.8mb 36f
3:40pm 32 36 mph 1005.4mb 36f
3:30pm 21 26 mph 1005.4mb 36f
3:20pm 16 23 mph 1005.4mb 34f
3:10pm 26 32 mph 1005.4mb 33f
3:00pm 26 31 mph 1005.4mb 36f
2:50pm 24 29 mph 1005.4mb 35f
2:41pm 23 29 mph 1005.1mb 35f
2:40pm 23 28 mph 1005.1mb 35f
2:30pm 23 26 mph 1005.1mb 34f
2:20pm 25 33 mph 1005.1mb 33f
2:10pm 29 31 mph 1005.1mb 34f
2:09pm 28
mph
1005.1mb 34f
2:00pm 28 34 mph 1005.1mb 34f
1:50pm 22 29 mph 1004.7mb 34f
1:40pm 21 25 mph 1004.4mb 34f
1:30pm 24 29 mph 1004.4mb 34f
1:25pm 24 29 mph 1004.1mb 35f
1:20pm 17 25 mph 1004.1mb 34f
1:10pm 23 32 mph 1004.1mb 34f
1:09pm 24
mph
1004.1mb 35f
1:00pm 18 23 mph 1004.1mb 34f
12:50pm 20 28 mph 1004.1mb 33f
12:40pm 24 31 mph 1003.7mb 33f
12:30pm 22 25 mph 1003.7mb 35f
12:20pm 22 30 mph 1003.7mb 34f
12:11pm 20 30 mph 1003.7mb 35f
12:10pm 20 25 mph 1003.4mb 35f
12:00pm 20 24 mph 1003.4mb 36f
11:40am 20 26 mph 1003.4mb 36f
11:30am 24 28 mph 1003.4mb 36f
11:20am 23 36 mph 1003.4mb 35f
11:10am 23 32 mph 1003.4mb 36f
11:00am 20 24 mph 1003mb 36f
10:50am 21 28 mph 1003mb 35f
10:40am 25 30 mph 1003.4mb 35f
10:30am 21 24 mph 1003mb 36f
10:20am 17 25 mph 1003mb 36f
10:10am 21 25 mph 1002.7mb 36f
10:07am 21
mph
1003mb 36f
10:00am 24 30 mph 1002.7mb 36f
9:50am 21 25 mph 1002.7mb 36f
9:40am 24 26 mph 1002.7mb 35f
9:30am 20 25 mph 1002.4mb 35f
9:20am 21 24 mph 1002.7mb 35f
9:10am 18 25 mph 1002.4mb 35f
9:07am 17 25 mph 1002.4mb 35f
9:00am 16
mph
1002.4mb -
8:50am 17 21 mph 1002.4mb 35f
8:40am 17 22 mph 1002.4mb 34f
8:30am 17 21 mph 1002.4mb 34f
8:20am 16 21 mph 1002.4mb 34f
8:10am 18 25 mph 1002mb 34f
8:07am 22 26 mph 1002mb 33f
8:00am 20 26 mph 1002.4mb 33f
7:50am 17 21 mph 1002mb 33f
7:40am 15 16 mph 1002mb 33f
7:30am 16 17 mph 1002mb 33f
7:20am 16 21 mph 1002mb 33f
7:10am 17 21 mph 1002mb 33f
7:06am 18 22 mph 1002mb 34f
7:00am 18 22 mph 1002mb 34f
6:50am 17 21 mph 1001.7mb 35f
6:40am 16 21 mph 1001.4mb 35f
6:30am 16 20 mph 1001.4mb 35f
6:20am 15 21 mph 1001.4mb 35f
6:10am 17 23 mph 1001.4mb 35f
6:06am 18 24 mph 1001.4mb 35f
6:00am 18 24 mph 1001.4mb 35f
5:50am 22 24 mph 1001mb 35f
5:40am 21 24 mph 1001mb 35f